Latest Weather Observations for Giles*

IDW60801

Issued at 10:35 pm WST Sunday 23 November 2014 (issued every 30 minutes, with the page automatically refreshed every 10 minutes)

About weather observations | Map of weather stations | Latest weather observations for WA | Other Formats
Station Details ID: 013017 Name: GILES METEOROLOGICAL OFFICE Lat: -25.03 Lon: 128.30 Height: 598.0 m
Data from the previous 72 hours. | See also: Recent months at Giles*

* Giles observations are collected in the South Australia time zone, which includes daylight saving in the summer period. Therefore, Rain since 9am value is with respect to South Australia local time.

Date/Time
WST
Temp
°C
App
Temp
°C
Dew
Point
Rel
Hum
%
Delta-T
°C
Wind Press
QNH
hPa
Press
MSL
hPa
Rain
since 9 am
mm
Dir
 
Spd
km/h
Gust
km/h
Spd
kts
Gust
kts
23/10:30pm 27.1 25.2 6.9 27 11.0 SE 6 7 3 4 1012.6 - 0.0
23/10:00pm 27.9 25.5 6.8 26 11.5 SE 9 13 5 7 1012.5 - 0.0
23/09:30pm 30.0 27.8 6.2 22 13.0 NE 7 9 4 5 1012.3 1008.2 0.0
23/09:00pm 29.3 28.1 8.1 26 11.9 E 4 7 2 4 1012.2 - 0.0
23/08:30pm 29.5 28.7 8.2 26 12.0 SSW 2 6 1 3 1012.2 - 0.0
23/08:00pm 30.6 28.1 6.4 22 13.3 SW 9 11 5 6 1012.1 - 0.0
23/07:30pm 31.7 28.3 5.7 19 14.2 WSW 13 20 7 11 1012.1 - 0.0
23/07:00pm 32.1 29.2 6.5 20 14.2 SW 11 15 6 8 1011.6 - 0.0
23/06:30pm 33.5 29.3 5.5 17 15.4 W 17 28 9 15 1011.2 1007.1 0.0
23/06:00pm 33.9 28.9 4.7 16 15.9 W 20 28 11 15 1010.8 - 0.0
23/05:30pm 34.0 30.5 7.1 19 15.2 WNW 15 17 8 9 1010.5 - 0.0
23/05:00pm 34.0 31.1 8.3 20 14.8 NNW 13 20 7 11 1009.9 - 0.0
23/04:30pm 33.9 30.9 9.3 22 14.4 ENE 15 20 8 11 1009.8 - 0.0
23/04:00pm 36.2 33.6 6.2 15 16.9 NW 9 19 5 10 1009.4 - 0.0
23/03:30pm 36.6 32.9 4.7 14 17.6 WNW 13 20 7 11 1009.5 1005.4 0.0
23/03:00pm 36.6 31.8 5.4 14 17.4 N 20 28 11 15 1009.6 - 0.0
23/02:30pm 37.4 33.1 5.1 13 18.0 WNW 17 26 9 14 1009.9 - 0.0
23/02:00pm 37.5 32.2 5.0 13 18.1 WNW 22 28 12 15 1010.3 - 0.0
23/01:30pm 36.0 31.6 4.8 14 17.2 N 17 26 9 14 1010.7 - 0.0
23/01:00pm 35.7 33.4 4.8 14 17.0 NNE 6 11 3 6 1011.2 - 0.0
23/12:30pm 36.3 32.8 3.6 13 17.7 E 11 24 6 13 1011.5 1007.4 0.0
23/12:00pm 35.6 32.7 4.5 14 17.0 ESE 9 17 5 9 1011.8 - 0.0
23/11:30am 33.0 32.6 11.1 26 13.1 NE 4 7 2 4 1012.5 - 0.0
23/11:00am 31.9 30.6 11.3 28 12.3 N 9 17 5 9 1013.1 - 0.0
23/10:30am 31.1 29.4 11.3 29 11.8 NNW 11 15 6 8 1013.5 - 0.0
23/10:00am 30.3 28.7 11.7 31 11.1 N 11 15 6 8 1013.4 - 0.0
23/09:30am 30.0 28.6 13.3 36 10.2 N 13 20 7 11 1013.9 1009.8 0.0
23/09:00am 29.1 27.6 14.2 40 9.2 N 15 22 8 12 1013.7 - 0.0
23/08:30am 28.8 26.6 14.4 41 8.9 NW 19 26 10 14 1013.9 - 0.0
23/08:00am 28.6 26.2 14.3 41 8.8 N 20 24 11 13 1013.6 - 0.0
23/07:30am 28.2 26.2 14.0 41 8.7 N 17 20 9 11 1013.4 - 0.0
23/07:00am 28.3 25.8 13.5 40 9.0 N 19 26 10 14 1013.1 - 0.0
23/06:30am 27.1 23.8 14.0 44 8.0 N 24 32 13 17 1012.8 1008.7 0.0
23/06:00am 27.0 24.1 13.9 44 8.0 N 22 28 12 15 1012.3 - 0.0
23/05:30am 26.9 23.9 13.7 44 8.0 N 22 30 12 16 1012.4 - 0.0
23/05:00am 26.2 22.9 13.9 46 7.5 N 24 30 13 16 1011.8 - 0.0
23/04:30am 26.4 23.3 13.5 45 7.8 N 22 32 12 17 1011.4 - 0.0
23/04:00am 26.5 23.3 13.2 43 8.0 N 22 32 12 17 1011.0 - 0.0
23/03:30am 26.7 23.6 13.3 43 8.1 N 22 32 12 17 1010.7 1006.6 0.0
23/03:00am 27.0 23.3 12.8 41 8.5 N 24 30 13 16 1010.6 - 0.0
23/02:30am 27.0 24.6 12.6 41 8.6 N 17 26 9 14 1010.7 - 0.0
23/02:00am 27.2 25.2 12.7 40 8.7 N 15 24 8 13 1010.6 - 0.0
23/01:30am 27.3 22.7 12.4 39 8.9 N 28 39 15 21 1010.5 - 0.0
23/01:00am 28.0 23.2 11.8 36 9.6 N 28 39 15 21 1010.6 - 0.0
23/12:39am 28.5 22.9 11.4 34 10.1 N 32 52 17 28 1010.6 - 0.0
23/12:30am 28.6 22.9 11.3 34 10.2 N 32 43 17 23 1010.7 1006.6 0.0
23/12:00am 28.7 23.8 11.4 34 10.2 NNE 28 39 15 21 1010.8 - 0.0
 
Date/Time
WST
Temp
°C
App
Temp
°C
Dew
Point
Rel
Hum
%
Delta-T
°C
Wind Press
QNH
hPa
Press
MSL
hPa
Rain
since 9 am
mm
Dir
 
Spd
km/h
Gust
km/h
Spd
kts
Gust
kts
22/11:30pm 29.0 24.0 10.9 32 10.6 N 28 43 15 23 1011.3 - 0.0
22/11:00pm 29.1 26.3 11.3 33 10.5 N 17 20 9 11 1011.8 - 0.0
22/10:30pm 29.4 23.7 11.3 32 10.7 N 32 48 17 26 1011.8 - 0.0
22/10:00pm 29.6 23.3 10.9 31 11.0 N 35 48 19 26 1011.6 - 0.0
22/09:30pm 30.0 23.9 10.5 30 11.4 NNE 33 61 18 33 1011.5 1007.4 0.0
22/09:14pm 30.0 24.1 10.3 29 11.5 NNE 32 57 17 31 1011.6 - 0.0
22/09:00pm 29.6 25.5 11.4 32 10.8 NNE 24 35 13 19 1011.8 - 0.0
22/08:30pm 30.0 24.6 11.0 31 11.2 NNE 30 44 16 24 1011.3 - 0.0
22/08:22pm 30.0 25.1 11.3 31 11.1 NNE 28 43 15 23 1011.3 - 0.0
22/08:00pm 30.6 29.3 10.0 28 12.0 E 7 17 4 9 1011.2 - 0.0
22/07:30pm 31.2 28.1 10.2 27 12.3 NE 17 26 9 14 1010.7 - 0.0
22/07:00pm 32.1 28.3 9.1 24 13.3 NNE 19 32 10 17 1010.3 - 0.0
22/06:30pm 31.3 28.8 10.9 28 12.1 NE 15 24 8 13 1009.8 1005.7 0.0
22/06:00pm 31.3 27.2 11.4 29 11.9 NNE 24 35 13 19 1009.4 - 0.0
22/05:30pm 31.1 26.2 11.3 29 11.8 NNE 28 35 15 19 1008.8 - 0.0
22/05:00pm 30.5 25.0 12.5 33 10.9 N 33 46 18 25 1009.1 - 0.0
22/04:52pm 31.2 24.3 11.7 30 11.7 N 39 46 21 25 1009.0 - 0.0
22/04:33pm 32.0 21.3 10.3 26 12.8 N 57 78 31 42 1008.2 - 0.0
22/04:30pm 32.4 21.9 10.4 26 13.0 N 56 72 30 39 1008.3 - 0.0
22/04:26pm 33.2 21.6 9.9 24 13.7 N 61 80 33 43 1008.3 - 0.0
22/04:23pm 34.5 23.0 8.7 20 15.0 N 59 70 32 38 1008.1 - 0.0
22/04:22pm 36.3 29.2 6.5 16 16.8 N 33 70 18 38 1008.1 - 0.0
22/04:21pm 38.0 31.0 4.0 12 18.7 N 30 46 16 25 1007.9 - 0.0
22/04:00pm 40.2 34.6 -0.1 8 21.0 NNW 19 28 10 15 1007.1 - 0.0
22/03:30pm 38.9 33.3 1.1 9 20.0 NNW 20 26 11 14 1006.9 1002.7 0.0
22/03:00pm 39.6 34.9 3.0 10 19.9 N 17 26 9 14 1007.1 - 0.0
22/02:30pm 39.3 34.1 2.6 10 19.9 N 19 24 10 13 1007.7 - 0.0
22/02:00pm 37.1 29.5 4.1 13 18.1 N 33 46 18 25 1008.2 - 0.0
22/01:40pm 37.7 30.5 2.9 11 18.8 N 30 50 16 27 1008.5 - 0.0
22/01:30pm 38.6 31.6 2.0 10 19.6 N 28 39 15 21 1008.6 - 0.0
22/01:15pm 39.5 31.9 0.6 9 20.4 N 30 46 16 25 1008.6 - 0.0
22/01:00pm 40.4 34.8 1.3 9 20.9 W 20 28 11 15 1008.9 - 0.0
22/12:30pm 39.5 33.8 0.5 9 20.5 NW 20 33 11 18 1009.4 1005.3 0.0
22/12:00pm 39.7 32.4 0.2 8 20.7 WNW 28 41 15 22 1009.7 - 0.0
22/11:30am 39.6 33.5 0.3 8 20.6 WNW 22 32 12 17 1010.3 - 0.0
22/11:00am 40.1 34.4 -1.0 7 21.2 NW 19 43 10 23 1010.6 - 0.0
22/10:30am 38.6 34.9 4.6 12 18.9 NNW 13 22 7 12 1010.9 - 0.0
22/10:00am 38.0 33.4 5.7 14 18.2 WNW 19 24 10 13 1011.4 - 0.0
22/09:30am 37.3 32.7 6.5 15 17.5 NW 20 26 11 14 1011.6 1007.5 0.0
22/09:00am 36.5 32.3 7.4 17 16.7 NW 19 24 10 13 1011.8 - 0.0
22/08:30am 35.5 30.1 8.2 18 15.8 NNW 26 39 14 21 1011.7 - 0.0
22/08:00am 34.4 28.8 8.7 20 14.9 NW 28 39 15 21 1011.9 - 0.0
22/07:30am 32.6 27.2 9.4 24 13.5 NNW 28 39 15 21 1011.9 - 0.0
22/07:00am 32.0 25.8 9.2 24 13.2 N 32 37 17 20 1011.7 - 0.0
22/06:30am 30.8 24.9 9.0 25 12.5 N 30 41 16 22 1011.5 1007.4 0.0
22/06:00am 30.9 26.7 8.1 24 12.9 N 20 28 11 15 1011.1 - 0.0
22/05:30am 29.3 24.8 8.7 27 11.7 N 22 28 12 15 1010.8 - 0.0
22/05:00am 28.4 23.9 8.5 28 11.2 N 22 28 12 15 1010.7 - 0.0
22/04:30am 28.4 24.1 7.7 27 11.5 NNW 20 26 11 14 1010.4 - 0.0
22/04:00am 26.4 22.9 8.7 32 9.9 NNW 17 19 9 10 1009.6 - 0.0
22/03:30am 27.4 24.0 9.2 32 10.3 N 17 19 9 10 1009.2 1005.1 0.0
22/03:00am 29.0 25.1 8.7 28 11.5 NNW 19 22 10 12 1009.1 - 0.0
22/02:30am 28.8 24.8 9.2 29 11.2 N 20 24 11 13 1008.9 - 0.0
22/02:00am 28.7 26.1 9.5 30 11.0 N 13 19 7 10 1008.6 - 0.0
22/01:30am 29.8 26.4 9.2 27 11.8 N 17 30 9 16 1008.7 - 0.0
22/01:00am 29.9 26.1 9.1 27 11.9 N 19 26 10 14 1008.9 - 0.0
22/12:30am 30.2 26.3 8.8 26 12.2 N 19 28 10 15 1009.2 1005.1 0.0
22/12:00am 30.9 26.6 7.8 23 13.0 N 20 28 11 15 1009.5 - 0.0
 
Date/Time
WST
Temp
°C
App
Temp
°C
Dew
Point
Rel
Hum
%
Delta-T
°C
Wind Press
QNH
hPa
Press
MSL
hPa
Rain
since 9 am
mm
Dir
 
Spd
km/h
Gust
km/h
Spd
kts
Gust
kts
21/11:30pm 31.5 26.7 5.7 19 14.1 N 20 26 11 14 1009.8 - 0.0
21/11:00pm 32.3 27.2 2.9 15 15.4 N 19 24 10 13 1010.1 - 0.0
21/10:30pm 33.6 27.3 -3.7 9 17.7 N 20 26 11 14 1010.3 - 0.0
21/10:27pm 33.4 27.1 -4.4 8 17.7 N 20 37 11 20 1010.3 - 0.0
21/10:00pm 27.0 24.9 -0.7 16 13.2 CALM 0 0 0 0 1010.4 - 0.0
21/09:30pm 30.3 26.7 -2.0 12 15.4 NNW 7 9 4 5 1010.4 1006.3 0.0
21/09:00pm 32.3 27.8 -3.6 9 16.9 N 11 11 6 6 1010.3 - 0.0
21/08:30pm 33.4 29.3 -3.3 9 17.5 N 9 9 5 5 1010.1 - 0.0
21/08:00pm 33.6 29.4 -3.7 9 17.7 N 9 11 5 6 1010.1 - 0.0
21/07:30pm 33.4 28.8 -4.4 8 17.7 N 11 13 6 7 1009.9 - 0.0
21/07:00pm 33.9 29.6 -4.4 8 18.0 N 9 11 5 6 1009.7 - 0.0
21/06:30pm 34.2 29.8 -5.7 7 18.4 NW 9 11 5 6 1009.5 1005.4 0.0
21/06:00pm 36.4 31.4 -8.2 5 20.0 NW 11 15 6 8 1009.3 - 0.0
21/05:30pm 38.0 30.8 -15.2 3 21.7 WNW 20 28 11 15 1009.1 - 0.0
21/05:00pm 38.9 32.3 -15.8 2 22.3 WNW 17 32 9 17 1008.7 - 0.0
21/04:30pm 39.1 31.5 -16.9 2 22.5 WNW 22 32 12 17 1008.7 - 0.0
21/04:00pm 39.9 32.7 -15.7 2 22.9 NW 20 35 11 19 1008.6 - 0.0
21/03:30pm 40.1 34.4 -12.0 3 22.8 WNW 13 22 7 12 1008.7 1004.5 0.0
21/03:00pm 40.4 32.4 -10.3 4 22.7 W 26 39 14 21 1008.8 - 0.0
21/02:30pm 40.5 33.1 -12.6 3 23.0 W 22 35 12 19 1009.2 - 0.0
21/02:00pm 39.7 32.3 -12.6 3 22.6 WNW 22 37 12 20 1009.5 - 0.0
21/01:36pm 40.1 31.4 -14.3 3 22.9 W 28 46 15 25 1009.9 - 0.0
21/01:30pm 39.6 30.2 -22.1 1 23.1 W 30 46 16 25 1009.9 - 0.0
21/01:00pm 39.7 32.3 -21.0 2 23.2 WNW 20 37 11 20 1010.3 - 0.0
21/12:38pm 39.0 30.1 -19.6 2 22.7 WNW 28 48 15 26 1010.5 - 0.0
21/12:30pm 39.1 29.3 -24.6 1 23.0 WNW 32 46 17 25 1010.6 1006.5 0.0
21/12:04pm 39.4 30.3 -25.1 1 23.2 WNW 28 56 15 30 1010.7 - 0.0
21/12:00pm 38.2 28.6 -32.9 1 22.7 WNW 30 44 16 24 1010.9 - 0.0
21/11:30am 38.4 29.2 -38.3 0 22.9 NW 28 39 15 21 1011.3 - 0.0
21/11:00am 38.3 29.4 -20.2 2 22.3 WNW 28 44 15 24 1011.7 - 0.0
21/10:43am 38.4 29.5 -19.2 2 22.3 WNW 28 48 15 26 1011.9 - 0.0
21/10:30am 37.6 28.7 -20.6 2 21.9 W 28 43 15 23 1012.3 - 0.0
21/10:00am 37.0 28.4 -13.2 3 21.0 W 28 41 15 22 1012.5 - 0.0
21/09:30am 36.6 28.6 -9.9 5 20.4 W 26 39 14 21 1012.7 1008.6 0.0
21/09:00am 35.9 27.6 -8.5 5 19.8 WNW 28 39 15 21 1012.9 - 0.0
21/08:30am 35.4 27.9 -4.5 7 18.9 WNW 26 37 14 20 1012.9 - 0.0
21/08:00am 34.5 28.8 0.3 11 17.4 WNW 20 32 11 17 1012.9 - 0.0
21/07:30am 32.5 29.1 7.8 21 14.0 WNW 15 20 8 11 1013.0 - 0.0
21/07:00am 29.9 28.1 9.4 28 11.8 N 9 13 5 7 1012.9 - 0.0
21/06:30am 27.4 27.0 12.5 39 8.9 N 6 7 3 4 1012.9 1008.8 0.0
21/06:00am 26.6 27.4 13.6 44 7.9 E 2 7 1 4 1012.6 - 0.0
21/05:30am 24.3 25.2 12.8 48 6.8 CALM 0 0 0 0 1012.3 - 0.0
21/05:00am 20.8 19.5 11.1 53 5.5 S 9 11 5 6 1011.9 - 0.0
21/04:30am 20.4 19.0 10.8 54 5.4 SSE 9 13 5 7 1011.6 - 0.0
21/04:00am 22.7 21.7 12.4 52 6.0 E 9 13 5 7 1011.3 - 0.0
21/03:30am 22.9 21.3 11.7 49 6.5 ENE 11 13 6 7 1011.2 1007.1 0.0
21/03:00am 21.6 21.3 10.2 48 6.4 SE 2 7 1 4 1011.1 - 0.0
21/02:30am 21.6 20.2 9.7 46 6.6 SSE 7 9 4 5 1011.1 - 0.0
21/02:00am 23.8 22.5 11.3 45 7.2 E 9 11 5 6 1011.0 - 0.0
21/01:30am 23.7 21.8 10.5 43 7.5 ESE 11 13 6 7 1011.0 - 0.0
21/01:00am 24.1 23.0 10.6 42 7.7 ESE 7 9 4 5 1011.3 - 0.0
21/12:30am 24.7 23.1 10.3 40 8.2 SSW 9 11 5 6 1011.4 1007.3 0.0
21/12:00am 24.8 22.8 10.0 39 8.4 SE 11 13 6 7 1011.6 - 0.0
 
Date/Time
WST
Temp
°C
App
Temp
°C
Dew
Point
Rel
Hum
%
Delta-T
°C
Wind Press
QNH
hPa
Press
MSL
hPa
Rain
since 9 am
mm
Dir
 
Spd
km/h
Gust
km/h
Spd
kts
Gust
kts
20/11:30pm 26.5 24.2 10.3 36 9.3 ESE 13 17 7 9 1011.8 - 0.0
20/11:00pm 27.3 24.1 9.8 33 10.0 ESE 17 20 9 11 1012.2 - 0.0
20/10:30pm 27.2 25.0 9.4 32 10.1 E 11 13 6 7 1012.6 - 0.0
20/10:00pm 27.9 25.2 7.4 27 11.3 ESE 11 13 6 7 1012.4 - 0.0
20/09:30pm 28.3 25.2 5.5 23 12.2 SE 11 13 6 7 1012.6 1008.5 0.0
20/09:00pm 29.2 26.3 4.7 21 13.0 SSE 9 13 5 7 1012.6 - 0.0
20/08:30pm 30.2 26.7 3.7 18 13.9 SSW 11 11 6 6 1012.1 - 0.0

Other Formats:

Comma delimited format used in spreadsheet applications
http://www.bom.gov.au/fwo/IDW60801/IDW60801.94461.axf

JavaScript Object Notation format (JSON) in row-major order
http://www.bom.gov.au/fwo/IDW60801/IDW60801.94461.json